Galveston, TX

7:32 PM CDT on August 15, 2018 (GMT -0500)
Scholes International At Galveston

Weather History for KGLS - May, 2018

Change the Weather History Date:

Wednesday, May 16, 2018

  Actual Average Record
Temperature  
Mean Temperature 82 °F 78 °F  
Max Temperature 89 °F 83 °F 90 °F (1875)
Min Temperature 74 °F 72 °F 56 °F (1945)
Degree Days  
Heating Degree Days 0 0  
Month to date heating degree days 0 0  
Since 1 July heating degree days 816 1009  
Cooling Degree Days 17 13  
Month to date cooling degree days 220 176  
Year to date cooling degree days 640 419  
Growing Degree Days 30 (Base 50)    
Moisture  
Dew Point 71 °F    
Average Humidity 75    
Maximum Humidity 100    
Minimum Humidity 50    
Precipitation  
Precipitation 0.00 in 0.09 in 2.53 in (1969)
Month to date precipitation 0.24 1.80  
Year to date precipitation 7.63 14.78  
Snow  
Snow 0.00 in - - ()
Month to date snowfall 0.0  
Since 1 July snowfall T 0.0  
Snow Depth 0.00 in    
Sea Level Pressure  
Sea Level Pressure 29.91 in    
Wind  
Wind Speed 10 mph (SW)    
Max Wind Speed 18 mph    
Max Gust Speed 22 mph    
Visibility 10 miles    
Events      
T = Trace of Precipitation, MM = Missing Value Source: NWS Daily Summary

Daily Weather History Graph

Daily Weather History Graph

Search for Another Location

Airport or City:

Astronomy

May. 16, 2018 Rise Set
Actual Time 6:26 AM CDT 8:05 PM CDT
Civil Twilight 6:00 AM CDT 8:31 PM CDT
Nautical Twilight 5:29 AM CDT 9:02 PM CDT
Astronomical Twilight 4:56 AM CDT 9:35 PM CDT
Moon 7:37 AM CDT 9:34 PM CDT
Length of Visible Light 14h 30m
Length of Day
13h 38m
New Moon, 2% of the Moon is Illuminated
May 16
New Moon
May 21
First Quarter
May 29
Full
Jun 6
Last Quarter
Jun 13
New

Hourly Weather History & Observations

Time (CDT) Temp. Heat Index Dew Point Humidity Pressure Visibility Wind Dir Wind Speed Gust Speed Precip Events Conditions
12:52 AM 77.0 °F - 72.0 °F 84% 29.93 in 10.0 mi WSW 6.9 mph - N/A   Clear
1:52 AM 75.9 °F - 72.0 °F 87% 29.91 in 10.0 mi SW 6.9 mph - N/A   Clear
2:52 AM 75.9 °F - 73.0 °F 91% 29.89 in 10.0 mi SW 6.9 mph - N/A   Clear
3:52 AM 75.0 °F - 73.9 °F 96% 29.89 in 10.0 mi WSW 4.6 mph - N/A   Clear
4:52 AM 75.0 °F - 73.0 °F 94% 29.90 in 10.0 mi West 11.5 mph - N/A   Unknown
5:52 AM 73.9 °F - 72.0 °F 93% 29.92 in 10.0 mi WNW 6.9 mph - N/A   Clear
6:52 AM 73.9 °F - 73.0 °F 97% 29.93 in 10.0 mi West 3.5 mph - N/A   Clear
7:52 AM 77.0 °F - 73.0 °F 88% 29.95 in 10.0 mi NNW 5.8 mph - N/A   Clear
8:52 AM 79.0 °F - 73.0 °F 82% 29.97 in 10.0 mi WNW 8.1 mph - N/A   Clear
9:52 AM 80.1 °F 84.2 °F 73.0 °F 79% 29.96 in 10.0 mi WSW 6.9 mph - N/A   Unknown
10:52 AM 84.0 °F 89.0 °F 71.1 °F 65% 29.97 in 10.0 mi West 11.5 mph - N/A   Clear
11:52 AM 87.1 °F 89.9 °F 66.9 °F 51% 29.96 in 10.0 mi West 12.7 mph - N/A   Clear
12:52 PM 88.0 °F 90.7 °F 66.9 °F 49% 29.95 in 10.0 mi WNW 6.9 mph - N/A   Clear
1:52 PM 87.1 °F 94.5 °F 73.0 °F 63% 29.93 in 10.0 mi SSW 11.5 mph - N/A   Partly Cloudy
2:52 PM 87.1 °F 94.5 °F 73.0 °F 63% 29.91 in 10.0 mi South 13.8 mph - N/A   Partly Cloudy
3:52 PM 87.1 °F 91.3 °F 69.1 °F 55% 29.90 in 10.0 mi South 12.7 mph - N/A   Clear
4:52 PM 86.0 °F 91.5 °F 71.1 °F 61% 29.88 in 10.0 mi SSW 16.1 mph - N/A   Clear
5:52 PM 84.9 °F 87.1 °F 66.0 °F 53% 29.87 in 10.0 mi SSW 15.0 mph - N/A   Clear
6:52 PM 82.9 °F 85.4 °F 66.9 °F 58% 29.86 in 10.0 mi SSW 13.8 mph - N/A   Clear
7:52 PM 80.1 °F 82.9 °F 69.1 °F 69% 29.87 in 10.0 mi SSW 12.7 mph - N/A   Clear
8:52 PM 79.0 °F - 70.0 °F 74% 29.88 in 10.0 mi SSW 13.8 mph - N/A   Unknown
9:52 PM 79.0 °F - 71.1 °F 77% 29.88 in 10.0 mi SSW 11.5 mph - N/A   Unknown
10:52 PM 79.0 °F - 71.1 °F 77% 29.90 in 10.0 mi SSW 13.8 mph - N/A   Clear
11:52 PM 78.1 °F - 72.0 °F 81% 29.91 in 10.0 mi SSW 9.2 mph - N/A   Unknown